Year,Month,Day,Hour,Minute,Value (Times are PST for temperature in C)
2014,07,20,00,19,15.80
2014,07,20,00,43,15.60
2014,07,20,01,06,15.40
2014,07,20,01,31,14.90
2014,07,20,01,54,14.30
2014,07,20,02,19,14.10
2014,07,20,02,43,13.80
2014,07,20,03,06,13.80
2014,07,20,03,30,13.80
2014,07,20,03,54,13.80
2014,07,20,04,21,13.70
2014,07,20,04,47,13.70
2014,07,20,05,11,13.70
2014,07,20,05,36,13.60
2014,07,20,05,59,13.50
2014,07,20,06,25,13.60
2014,07,20,06,49,13.60
2014,07,20,07,13,13.80
2014,07,20,07,39,13.90
2014,07,20,08,03,14.10
2014,07,20,08,27,14.10
2014,07,20,08,53,14.10
2014,07,20,09,17,14.30
2014,07,20,09,42,14.40
2014,07,20,10,06,14.70
2014,07,20,10,30,14.90
2014,07,20,10,54,15.30
2014,07,20,11,17,15.60
2014,07,20,11,42,16.00
2014,07,20,12,06,16.10
2014,07,20,12,31,16.00
2014,07,20,12,54,16.60
2014,07,20,13,18,16.70
2014,07,20,13,43,16.90
2014,07,20,14,08,16.90
2014,07,20,14,33,16.80
2014,07,20,14,56,16.90
2014,07,20,15,19,17.40
2014,07,20,15,45,16.80
2014,07,20,16,11,16.40
2014,07,20,16,34,16.30
2014,07,20,16,59,16.50
2014,07,20,17,23,16.60
2014,07,20,17,47,16.50
2014,07,20,18,13,16.60
2014,07,20,18,37,17.10
2014,07,20,19,00,16.70
2014,07,20,19,24,16.30
2014,07,20,19,49,15.80
2014,07,20,20,15,15.50
2014,07,20,20,40,15.30
2014,07,20,21,03,15.20
2014,07,20,21,27,15.10
2014,07,20,21,53,14.90
2014,07,20,22,18,14.60
2014,07,20,22,42,14.40
2014,07,20,23,06,14.40
2014,07,20,23,29,14.30
2014,07,20,23,54,14.30
